#timestamp,LO_Frequency,Hit,StdDev 
1589149055.3,286047018.3,P
1589149075.2,286047017.9,P
1589149095.0,286047018.5,P
1589149095.9,286047018.5,Y
1589149115.7,286046999.8,P
1589149135.6,286046999.9,N
1589149155.4,286047001.3,N
1589149175.3,286047003.9,N
1589149195.1,286047001.5,N
1589149215.8,286047004.4,N
1589149235.7,286047003.7,N
1589149255.5,286047005.6,N
1589149275.4,286047003.8,N
1589149295.2,286047004.0,N
1589149315.0,286047005.6,N
1589149315.9,286047005.6,N
1589149335.8,286047011.9,N
1589149355.6,286047004.9,N
1589149375.4,286047005.1,N
1589149395.3,286047006.2,N
1589149415.1,286047009.2,N
1589149435.9,286047009.2,N
1589149455.7,286047008.4,N
1589149475.5,286047007.7,N
1589149495.4,286047010.3,N
1589149515.2,286047009.6,N
1589149535.0,286047010.0,N
1589149536.0,286047010.0,N
1589149555.8,286047009.3,N
1589149575.6,286047010.2,N
1589149595.5,286047012.2,Y
1589149615.3,286047003.1,P
1589149635.1,286047002.9,N
1589149655.9,286047005.5,P
1589149675.7,286047005.2,Y
1589149695.6,286047000.9,P
1589149715.4,286047002.5,N
1589149735.2,286047003.4,N
1589149755.1,286047005.5,Y
1589149786.0,286046999.8,E
1589149795.0,286047002.4,N
1589149795.9,286047002.4,P
1589149815.8,286047002.6,P
1589149835.6,286047002.0,Y
1589149855.4,286047000.6,P
1589149875.3,286046999.7,N
1589149895.1,286047002.2,N
1589149915.9,286047003.2,N
1589149935.7,286047005.0,Y
1589149955.5,286047003.1,P
1589149975.4,286047001.3,N
1589149995.2,286047001.6,N
1589150015.1,286047003.1,Y
1589150016.0,286047003.1,P
1589150035.8,286047004.1,P
1589150055.6,286047002.1,N
1589150075.5,286047002.4,N
1589150095.3,286047002.6,Y
1589150115.1,286046997.4,P
1589150135.9,286046996.6,N
1589150155.7,286046998.2,N
1589150175.6,286047000.5,N
1589150195.4,286047002.2,N
1589150215.2,286047001.9,N
1589150235.1,286047002.3,N
1589150236.0,286047002.3,N
1589150255.8,286047000.4,N
1589150275.7,286047001.0,N
1589150295.5,286047002.6,N
1589150315.3,286046999.7,N
1589150335.2,286047002.3,N
1589150355.0,286047003.1,N
1589150355.9,286047003.1,N
1589150375.8,286047003.3,N
1589150395.6,286047003.3,N
1589150415.4,286047011.9,Y
1589150435.3,286047003.5,P
1589150455.1,286047003.8,P
1589150475.8,286047003.8,P
1589150495.7,286047003.4,Y
1589150515.5,286047000.3,P
1589150535.4,286047002.0,N
1589150555.2,286047000.1,N
1589150575.0,286047000.8,N
1589150575.9,286047000.8,N
1589150595.8,286047001.0,N
1589150615.6,286046998.9,N
1589150635.5,286046998.3,N
1589150655.3,286047001.1,N
1589150675.1,286047001.0,N
1589150695.9,286047002.6,N
1589150715.7,286047001.5,N
1589150735.5,286047002.0,N
1589150755.4,286047002.0,N
1589150775.2,286047003.5,N
1589150795.1,286047004.5,Y
1589150796.0,286047004.5,P
1589150815.8,286047005.1,P
1589150835.6,286047005.6,P
1589150855.5,286047005.1,N
1589150875.3,286047007.6,Y
1589150895.2,286047001.9,P
1589150915.9,286047002.1,N
1589150935.7,286047002.2,N
1589150955.6,286047002.2,N
1589150975.4,286047001.4,N
1589150995.2,286047001.9,N
1589151015.1,286047001.8,N
1589151016.0,286047001.8,N
1589151035.8,286046999.9,N
1589151055.7,286046999.8,N
1589151075.5,286046999.8,N
1589151095.3,286047000.0,N
1589151115.2,286046999.9,N
1589151135.0,286047000.1,N
1589151135.9,286047000.1,N
1589151155.8,286047001.7,N
1589151175.6,286047003.6,N
1589151195.4,286047004.5,Y
1589151215.3,286047005.8,P
1589151235.1,286047004.8,N
1589151255.8,286047007.3,P
1589151275.7,286047007.6,Y
1589151295.5,286047002.0,P
1589151315.4,286047003.5,N
1589151335.2,286047004.6,P
1589151355.0,286047006.0,Y
1589151355.9,286047006.0,P
1589151375.8,286046998.9,N
1589151395.6,286046998.6,N
1589151415.5,286047000.2,N
1589151435.3,286047000.1,N
1589151455.1,286047002.5,N
1589151475.9,286046999.7,N
1589151495.7,286047001.4,N
1589151515.5,286047001.3,N
1589151535.4,286047004.4,N
1589151555.2,286047001.7,N
1589151575.1,286047000.7,N
1589151576.0,286047000.7,N
1589151595.8,286046998.6,N
